CW3590 Weather Reports


Display with metric or nautical units.
time (UTC)temp
F
wind
direction
speed
MPH
gust
MPH
rain 1hr
in
rain 24hr
in
rain mn
in
humidity
%
barometer
mb
20260906060016 76 0 0.0 1.0 0.00 0.06 0.00 94 1011.4
20260906055016 76 0 0.0 1.0 0.00 0.06 0.00 94 1011.5
20260906054015 76 0 0.0 1.0 0.00 0.06 0.00 94 1011.4
20260906053016 76 0 0.0 0.0 0.00 0.06 0.00 94 1011.5
20260906052015 76 0 0.0 0.0 0.00 0.06 0.00 94 1011.4
20260906051016 76 0 0.0 0.0 0.00 0.06 0.00 94 1011.3
20260906050017 76 0 0.0 1.0 0.00 0.06 0.00 93 1011.2
20260906045015 76 0 0.0 0.0 0.00 0.06 0.06 93 1011.2
20260906044015 76 0 0.0 0.0 0.00 0.06 0.06 93 1011.4
20260906043015 76 0 0.0 0.0 0.00 0.06 0.06 93 1011.4
20260906042015 76 0 0.0 0.0 0.00 0.06 0.06 93 1011.5
20260906041016 76 0 0.0 0.0 0.00 0.06 0.06 93 1011.4
20260906040015 76 0 0.0 0.0 0.00 0.06 0.06 93 1011.2
20260906035016 76 0 0.0 0.0 0.00 0.06 0.06 93 1011.4
20260906033016 77 0 0.0 0.0 0.00 0.06 0.06 93 1011.8
20260906031016 77 0 0.0 0.0 0.00 0.06 0.06 93 1011.4
20260906024016 77 0 0.0 2.0 0.00 0.06 0.06 93 1011.4
20260906023015 77 0 0.0 0.0 0.00 0.06 0.06 93 1011.3
20260906022015 78 0 0.0 2.0 0.00 0.06 0.06 93 1011.3
20260906021015 78 53 0.0 1.0 0.00 0.06 0.06 93 1011.3
20260906020015 78 53 1.0 2.0 0.00 0.06 0.06 93 1011.2
20260906014016 78 0 0.0 1.0 0.00 0.06 0.06 93 1011.5
20260906013016 79 199 1.0 1.0 0.00 0.06 0.06 93 1011.3
20260906012017 79 138 1.0 3.0 0.00 0.06 0.06 93 1011.3
20260906011015 79 85 0.0 3.0 0.00 0.06 0.06 93 1011.4
20260906010015 79 0 0.0 2.0 0.00 0.06 0.06 93 1011.5
20260906003016 79 137 0.0 1.0 0.00 0.06 0.06 93 1011.0
20260906002015 79 210 1.0 3.0 0.00 0.06 0.06 93 1011.2
20260906000015 79 252 1.0 2.0 0.01 0.06 0.06 93 1011.4
20260905235015 79 284 0.0 2.0 0.01 0.06 0.06 93 1011.4
20260905233015 79 0 0.0 1.0 0.02 0.06 0.06 92 1011.2
20260905231015 79 0 0.0 1.0 0.02 0.06 0.06 92 1011.1
20260905230015 79 0 0.0 0.0 0.02 0.05 0.05 92 1011.1
20260905225015 79 0 0.0 0.0 0.02 0.05 0.05 92 1010.8
20260905224015 79 0 0.0 0.0 0.02 0.05 0.05 92 1010.9
20260905223015 79 0 0.0 2.0 0.02 0.04 0.04 91 1011.2
20260905222016 79 0 0.0 2.0 0.02 0.04 0.04 91 1011.1
20260905221015 79 0 0.0 0.0 0.02 0.04 0.04 91 1011.0
20260905220015 79 0 0.0 0.0 0.01 0.03 0.03 91 1011.3
20260905215015 79 0 0.0 2.0 0.01 0.03 0.03 90 1011.5
20260905214015 79 0 0.0 0.0 0.01 0.03 0.03 90 1011.5
20260905212017 79 114 1.0 1.0 0.01 0.02 0.02 89 1011.0
20260905211015 79 130 1.0 4.0 0.02 0.02 0.02 88 1011.0
20260905210015 79 166 1.0 3.0 0.02 0.02 0.02 88 1011.1
20260905205015 79 161 2.0 4.0 0.02 0.02 0.02 87 1011.4
20260905204015 80 175 3.0 7.0 0.02 0.02 0.02 84 1011.8
20260905203015 82 179 3.0 5.0 0.02 0.02 0.02 82 1011.9
20260905202015 84 152 3.0 9.0 0.00 0.00 0.00 76 1012.0
20260905201015 85 153 3.0 8.0 0.00 0.00 0.00 74 1012.2
20260905200015 87 150 3.0 7.0 0.00 0.00 0.00 72 1012.0
20260905195016 92 99 2.0 7.0 0.00 0.00 0.00 66 1011.5
20260905194015 92 32 0.0 3.0 0.00 0.00 0.00 63 1011.2
20260905193015 92 48 1.0 4.0 0.00 0.00 0.00 62 1011.2
20260905191015 90 48 1.0 3.0 0.00 0.00 0.00 68 1011.3
20260905190014 90 55 1.0 5.0 0.00 0.00 0.00 68 1011.4
20260905185015 90 58 1.0 6.0 0.00 0.00 0.00 66 1011.6
20260905183014 92 216 1.0 2.0 0.00 0.00 0.00 61 1011.7
20260905182015 91 29 2.0 4.0 0.00 0.00 0.00 61 1011.9
20260905181015 91 352 1.0 4.0 0.00 0.00 0.00 62 1012.1
20260905180014 92 103 1.0 4.0 0.00 0.00 0.00 63 1012.4
20260905175015 91 114 2.0 4.0 0.00 0.00 0.00 64 1012.6
20260905174015 90 254 1.0 4.0 0.00 0.00 0.00 64 1012.8
20260905172015 89 42 2.0 4.0 0.00 0.00 0.00 66 1013.0
20260905165014 88 269 2.0 4.0 0.00 0.00 0.00 69 1013.4
20260905164015 87 294 1.0 6.0 0.00 0.00 0.00 73 1013.5
20260905163014 86 340 2.0 4.0 0.00 0.00 0.00 74 1013.7
20260905161014 86 305 2.0 3.0 0.00 0.00 0.00 76 1013.6
20260905160015 85 299 2.0 6.0 0.00 0.00 0.00 77 1013.6
20260905155014 84 265 2.0 6.0 0.00 0.00 0.00 77 1013.6
20260905154015 84 257 2.0 8.0 0.00 0.00 0.00 78 1013.8
20260905152015 83 247 2.0 4.0 0.00 0.00 0.00 81 1013.6
20260905151014 82 257 2.0 7.0 0.00 0.00 0.00 84 1013.5
20260905145015 81 253 2.0 7.0 0.00 0.00 0.00 86 1013.5
20260905144015 81 251 2.0 7.0 0.00 0.00 0.00 88 1013.5
20260905143015 80 261 1.0 6.0 0.00 0.00 0.00 88 1013.4
20260905142014 80 246 1.0 4.0 0.00 0.00 0.00 89 1013.5
20260905141014 79 242 1.0 3.0 0.00 0.00 0.00 90 1013.4
20260905140015 79 259 1.0 3.0 0.00 0.00 0.00 90 1013.3
20260905135014 79 238 1.0 3.0 0.00 0.00 0.00 91 1013.4
20260905134015 78 258 0.0 3.0 0.00 0.00 0.00 91 1013.3
20260905132014 77 234 1.0 5.0 0.00 0.00 0.00 91 1013.3
20260905131015 77 228 0.0 3.0 0.00 0.00 0.00 91 1013.2
20260905130014 77 0 0.0 3.0 0.00 0.00 0.00 91 1013.2
20260905125015 76 0 0.0 4.0 0.00 0.00 0.00 90 1013.1
20260905124015 76 0 0.0 1.0 0.00 0.00 0.00 90 1013.0
20260905123014 76 0 0.0 0.0 0.00 0.00 0.00 90 1012.8
20260905121014 76 0 0.0 0.0 0.00 0.00 0.00 90 1013.0
20260905120014 76 0 0.0 0.0 0.00 0.00 0.00 90 1012.9
20260905114014 76 0 0.0 0.0 0.00 0.00 0.00 90 1012.6
20260905113016 76 0 0.0 2.0 0.00 0.00 0.00 90 1012.3
20260905112014 76 0 0.0 2.0 0.00 0.00 0.00 89 1012.3
20260905110014 76 0 0.0 3.0 0.00 0.00 0.00 89 1012.3
20260905105014 76 0 0.0 2.0 0.00 0.00 0.00 88 1012.4
20260905104014 76 0 0.0 1.0 0.00 0.00 0.00 88 1012.5
20260905103014 76 0 0.0 0.0 0.00 0.00 0.00 88 1012.5
20260905102015 76 0 0.0 0.0 0.00 0.00 0.00 88 1012.4
20260905101014 77 0 0.0 0.0 0.00 0.00 0.00 87 1012.3
20260905100014 77 0 0.0 0.0 0.00 0.00 0.00 87 1012.3
20260905095014 77 0 0.0 0.0 0.00 0.00 0.00 87 1012.3
20260905094014 77 0 0.0 0.0 0.00 0.00 0.00 87 1012.3
20260905091014 77 0 0.0 0.0 0.00 0.00 0.00 87 1011.9
20260905085014 77 0 0.0 1.0 0.00 0.00 0.00 86 1011.8
20260905084014 78 0 0.0 0.0 0.00 0.00 0.00 86 1011.8
20260905082014 78 0 0.0 0.0 0.00 0.00 0.00 85 1011.9
20260905081014 78 0 0.0 0.0 0.00 0.00 0.00 85 1012.0
20260905075014 78 0 0.0 0.0 0.00 0.00 0.00 85 1012.1
20260905074014 78 0 0.0 0.0 0.00 0.00 0.00 85 1012.0
20260905072014 79 0 0.0 0.0 0.00 0.00 0.00 84 1012.3
20260905064014 79 0 0.0 0.0 0.00 0.00 0.00 83 1012.6
20260905063014 80 0 0.0 0.0 0.00 0.00 0.00 83 1012.6
20260905062015 80 0 0.0 0.0 0.00 0.00 0.00 82 1012.5
20260905061014 80 0 0.0 0.0 0.00 0.00 0.00 82 1012.3